DW4080 Weather Reports


Display with metric or nautical units.
time (UTC)temp
F
wind
direction
speed
MPH
gust
MPH
rain 1hr
in
rain 24hr
in
rain mn
in
humidity
%
barometer
mb
20260510004554 65 360 3.0 10.0 0.00 0.00 0.00 44 1003.2
20260510003046 66 360 0.0 9.0 0.00 0.00 0.00 46 1002.5
20260510001557 66 360 0.0 2.0 0.00 0.00 0.00 47 1002.2
20260510000002 66 289 0.0 1.0 0.00 0.00 0.00 48 1002.1
20260509234530 67 360 0.0 4.0 0.00 0.00 0.00 47 1002.0
20260509233032 67 360 1.0 5.0 0.00 0.00 0.00 46 1002.0
20260509231544 67 360 3.0 8.0 0.00 0.00 0.00 44 1002.0
20260509230104 67 360 2.0 14.0 0.00 0.00 0.00 45 1002.0
20260509224505 68 360 5.0 12.0 0.00 0.00 0.00 42 1002.0
20260509223021 68 330 5.0 16.0 0.00 0.00 0.00 40 1001.9
20260509221647 69 360 7.0 14.0 0.00 0.00 0.00 38 1002.0
20260509220049 69 292 6.0 16.0 0.00 0.00 0.00 36 1001.9
20260509214605 70 360 7.0 16.0 0.00 0.00 0.00 34 1001.8
20260509213002 70 360 4.0 12.0 0.00 0.00 0.00 37 1001.5
20260509211523 70 360 6.0 14.0 0.00 0.00 0.00 38 1001.4
20260509210042 70 360 4.0 14.0 0.00 0.00 0.00 40 1001.4
20260509204556 68 360 5.0 11.0 0.00 0.00 0.00 43 1001.4
20260509203116 69 337 3.0 14.0 0.00 0.00 0.00 47 1001.4
20260509201507 68 360 3.0 9.0 0.00 0.00 0.00 46 1001.6
20260509200018 67 360 4.0 10.0 0.00 0.00 0.00 46 1001.9
20260509194532 67 5 3.0 10.0 0.00 0.00 0.00 50 1002.1
20260509193100 66 360 3.0 10.0 0.00 0.00 0.00 51 1002.3
20260509191555 66 360 5.0 12.0 0.00 0.00 0.00 52 1002.3
20260509184608 67 360 4.0 9.0 0.00 0.00 0.00 56 1001.8
20260509183057 68 360 4.0 15.0 0.00 0.00 0.00 54 1001.6
20260509181555 68 360 5.0 14.0 0.00 0.00 0.00 51 1001.2
20260509180115 68 360 5.0 12.0 0.00 0.00 0.00 52 1001.1
20260509174513 68 342 5.0 13.0 0.00 0.00 0.00 52 1001.2
20260509173022 67 360 3.0 16.0 0.00 0.00 0.00 56 1001.3
20260509171546 67 360 5.0 11.0 0.00 0.00 0.00 54 1001.4
20260509170051 68 5 6.0 12.0 0.00 0.00 0.00 55 1001.3
20260509164553 66 360 4.0 14.0 0.00 0.00 0.00 57 1001.2
20260509163126 66 306 5.0 11.0 0.00 0.00 0.00 58 1001.4
20260509161608 65 286 5.0 12.0 0.00 0.00 0.00 59 1001.3
20260509160006 64 307 7.0 14.0 0.00 0.00 0.00 61 1001.5
20260509154552 63 302 7.0 12.0 0.00 0.00 0.00 60 1001.8
20260509153050 63 360 6.0 11.0 0.00 0.00 0.00 61 1001.8
20260509151545 62 360 5.0 13.0 0.00 0.00 0.00 64 1001.7
20260509150050 61 360 4.0 10.0 0.00 0.00 0.00 67 1001.7
20260509144514 60 360 5.0 12.0 0.00 0.00 0.00 69 1001.7
20260509143022 59 227 1.0 5.0 0.00 0.00 0.00 72 1001.8
20260509141524 58 286 2.0 9.0 0.00 0.00 0.00 74 1002.0
20260509140019 57 360 3.0 8.0 0.00 0.00 0.00 76 1002.2
20260509134518 56 360 2.0 11.0 0.00 0.00 0.00 80 1002.3
20260509133023 55 360 1.0 6.0 0.00 0.00 0.00 81 1002.3
20260509131529 54 360 1.0 3.0 0.00 0.00 0.00 83 1002.6
20260509130036 54 360 0.0 4.0 0.00 0.00 0.00 84 1002.9
20260509124558 53 360 2.0 8.0 0.00 0.00 0.00 84 1002.8
20260509123056 53 360 3.0 9.0 0.00 0.00 0.00 86 1003.2
20260509121556 52 360 1.0 5.0 0.00 0.00 0.00 87 1003.3
20260509114529 51 360 2.0 6.0 0.00 0.00 0.00 90 1003.5
20260509113026 51 360 0.0 5.0 0.00 0.00 0.00 90 1003.4
20260509111526 50 360 2.0 5.0 0.00 0.00 0.00 90 1003.4
20260509110025 50 360 0.0 4.0 0.00 0.00 0.00 90 1003.3
20260509104531 50 281 0.0 2.0 0.00 0.00 0.00 90 1003.1
20260509103020 50 267 0.0 3.0 0.00 0.00 0.00 90 1003.2
20260509101518 50 267 0.0 0.0 0.00 0.00 0.00 90 1003.3
20260509100026 50 360 0.0 0.0 0.00 0.00 0.00 90 1003.4
20260509094520 50 360 0.0 3.0 0.00 0.00 0.00 90 1003.4
20260509093014 50 360 0.0 0.0 0.00 0.00 0.00 90 1003.7
20260509091513 50 360 0.0 0.0 0.00 0.00 0.00 90 1003.7
20260509090012 50 5 0.0 0.0 0.00 0.00 0.00 90 1003.7
20260509084515 50 5 0.0 1.0 0.00 0.00 0.00 89 1003.9
20260509083012 50 5 0.0 0.0 0.00 0.00 0.00 89 1003.8
20260509081518 50 5 0.0 0.0 0.00 0.00 0.00 89 1003.9
20260509080007 50 5 0.0 0.0 0.00 0.00 0.00 89 1003.8
20260509074505 50 5 0.0 0.0 0.00 0.00 0.00 89 1003.8
20260509073004 50 5 0.0 0.0 0.00 0.00 0.00 88 1004.1
20260509071501 51 5 0.0 0.0 0.00 0.00 0.00 88 1004.2
20260509070058 51 5 0.0 0.0 0.00 0.00 0.00 88 1004.4
20260509064606 51 5 0.0 0.0 0.00 0.00 0.00 87 1004.6
20260509063054 51 5 0.0 0.0 0.00 0.00 0.00 87 1004.8
20260509061558 51 36 0.0 0.0 0.00 0.00 0.00 86 1004.9
20260509060104 51 36 0.0 0.0 0.00 0.00 0.00 86 1005.3
20260509054604 51 36 0.0 0.0 0.00 0.00 0.00 84 1005.4
20260509053049 51 36 0.0 0.0 0.00 0.00 0.00 84 1005.4
20260509051545 51 36 0.0 0.0 0.00 0.00 0.00 83 1005.5
20260509050143 52 36 0.0 0.0 0.00 0.00 0.00 81 1005.6
20260509044547 52 37 0.0 0.0 0.00 0.00 0.00 80 1005.7
20260509043040 52 360 0.0 0.0 0.00 0.00 0.00 78 1005.7
20260509041539 52 360 0.0 0.0 0.00 0.00 0.00 76 1005.9
20260509040038 52 360 0.0 0.0 0.00 0.00 0.00 73 1006.0
20260509034540 52 360 0.0 0.0 0.00 0.00 0.00 69 1006.1
20260509033034 52 360 0.0 0.0 0.00 0.00 0.00 64 1006.2
20260509031535 52 360 0.0 0.0 0.00 0.00 0.00 59 1006.3
20260509030035 53 360 0.0 0.0 0.00 0.00 0.00 56 1006.2
20260509024532 53 360 0.0 0.0 0.00 0.00 0.00 52 1006.4
20260509023036 54 360 0.0 0.0 0.00 0.00 0.00 52 1006.5
20260509021532 55 360 0.0 0.0 0.00 0.00 0.00 47 1006.5
20260509020031 57 360 0.0 0.0 0.00 0.00 0.00 37 1006.4
20260509014530 58 360 0.0 0.0 0.00 0.00 0.00 36 1006.4
20260509013038 59 360 0.0 0.0 0.00 0.00 0.00 37 1006.1
20260509011529 59 360 0.0 5.0 0.00 0.00 0.00 42 1005.9
20260509010028 59 360 0.0 0.0 0.00 0.00 0.00 61 1005.8